Flag for U.S.A. Weather past 2 weeks in Laredo, Texas, U.S.A.

Now
78 °F

Sunny.


Feels Like: 80 °F
Forecast: 64 / 87 °F
Wind: 6 mph from South

Location: Laredo International Airport

Current Time: Oct 24, 2014 at 11:40:03 AM

Latest Report: Oct 24, 2014 at 10:56 AM


Visibility: 10 mi

Pressure: 30.17 "Hg

Humidity: 64%

Dew point: 65 °F

Location of LaredoLocation

Historic Weather in Laredo — Graph

°F

Laredo temperature yesterday

Maximum temperature yesterday: 84 °F (at 3:56 PM)
Minimum temperature yesterday: 69 °F (at 7:56 AM)
Average temperature yesterday: 76 °F

Past Weeks' High & Low Weather Summary

 TemperatureHumidityPressure
High95 °F (Oct 9, 3:56 PM)100% (Oct 18, 3:56 AM)30.22 "Hg (Oct 18, 3:56 AM)
Low55 °F (Oct 15, 4:56 AM)18% (Oct 14, 3:56 PM)29.68 "Hg (Oct 13, 4:56 AM)
Average77 °F63%29.96 "Hg
* Reported Oct 9 9:56 AM — Oct 24 9:56 AM, Laredo, Weather by CustomWeather, © 2014

Note: Actual official high and low records may vary slightly from our data, if they occured in-between our weather recording intervals... More about our weather records

Advertising

Laredo weather history for previous 24 hours

 ConditionsComfort  
Time TempWeatherWind HumidityBarometerVisibility
9:56 AM
Oct 24
74 °FSunny.No wind74%30.16 "Hg10 mi
8:56 AM68 °FSunny.No wind84%30.14 "Hg10 mi
7:56 AM64 °FClear.No wind93%30.12 "Hg9 mi
6:56 AM64 °FClear.No wind93%30.11 "Hg10 mi
5:56 AM66 °FClear.No wind94%30.10 "Hg10 mi
4:56 AM66 °FClear.5 mph87%30.09 "Hg10 mi
3:56 AM67 °FClear.No wind84%30.09 "Hg10 mi
2:56 AM67 °FClear.5 mph81%30.09 "Hg10 mi
1:56 AM69 °FClear.3 mph76%30.09 "Hg10 mi
12:56 AM70 °FClear.9 mph73%30.09 "Hg10 mi
11:56 PM
Oct 23
72 °FClear.7 mph68%30.08 "Hg10 mi
10:56 PM74 °FClear.6 mph64%30.08 "Hg10 mi
9:56 PM73 °FClear.6 mph71%30.08 "Hg10 mi
8:56 PM77 °FClear.No wind56%30.06 "Hg10 mi
7:56 PM78 °FSunny.5 mph54%30.05 "Hg10 mi
6:56 PM82 °FPassing clouds.3 mph44%30.03 "Hg10 mi
5:56 PM83 °FPartly sunny.No wind44%30.03 "Hg10 mi
4:56 PM84 °FPartly sunny.5 mph40%30.03 "Hg10 mi
3:56 PM84 °FScattered clouds.5 mph39%30.04 "Hg10 mi
2:56 PM83 °FPartly sunny.7 mph44%30.06 "Hg10 mi
1:56 PM81 °FPartly sunny.9 mph49%30.08 "Hg10 mi
12:56 PM81 °FPartly sunny.6 mph54%30.11 "Hg10 mi
11:56 AM79 °FPartly sunny.5 mph60%30.12 "Hg10 mi
Weather by CustomWeather, © 2014

See weather overviewHow to use our weather pages